Regional Weather Roundup
Issued by NWS Cleveland, OH

Home | Current Version | Previous Version | Graphics & Text | Print | Product List | Glossary On
Versions: 1 2 3 4 5 6 7 8 9 10 11 12 13 14 15 16 17 18 19 20 21 22 23 24 25 26 27 28 29 30 31 32 33 34 35 36 37 38 39 40 41 42 43 44 45 46 47 48 49 50
000
ASUS41 KCLE 272300
RWRCLE
OHIO REGIONAL WEATHER ROUNDUP
NATIONAL WEATHER SERVICE WILMINGTON, OH
600 PM EST MON FEB 27 2017

NOTE: "FAIR" INDICATES FEW OR NO CLOUDS BELOW 12,000 FEET WITH NO
SIGNIFICANT WEATHER AND/OR OBSTRUCTIONS TO VISIBILITY.

OHZ001>008-015>018-024>027-034-035-043-044-280000-
   NORTHWEST OHIO

CITY           SKY/WX    TMP DP  RH WIND       PRES   REMARKS
DEFIANCE       CLOUDY    47  33  58 S8        30.17F
FINDLAY        CLOUDY    47  37  68 SE9       30.19S
TOLEDO EXPRESS CLOUDY    47  34  60 S5        30.18F
TOLEDO EXEC    CLOUDY    48  32  53 SE7       30.20F
LIMA           CLOUDY    46  39  76 S8        30.18F
$$

OHZ009>014-019>023-028>033-038-089-280000-
   NORTHEAST OHIO

CITY           SKY/WX    TMP DP  RH WIND       PRES   REMARKS
CLE-HOPKINS    MOCLDY    47  32  56 S12       30.26S
CLE-LAKEFRONT  CLOUDY    48  30  49 S9        30.24R
CUY CO. ARPT   MOCLDY    46  30  53 SW6       30.25R
LORAIN-ELYRIA  CLOUDY    46  33  60 S9        30.23S
ASHTABULA      CLOUDY    45  26  47 S8        30.26R
AKRON-CANTON   CLOUDY    43  35  73 S6        30.25R
WOOSTER        NOT AVBL
MANSFIELD      CLOUDY    42  36  79 S7        30.23R
YOUNGSTOWN     MOCLDY    43  32  65 S5        30.26R
$$

OHZ042-051>053-060>062-070>072-077>081-280000-
  SOUTHWEST OHIO

CITY           SKY/WX    TMP DP  RH WIND       PRES   REMARKS
CINC-COVINGTON MOCLDY    48  41  76 SE9       30.18F
CINC-LUNKEN    MOCLDY    49  43  80 E3        30.21S
HAMILTON       MOCLDY    49  44  83 SE6       30.20F
DAYTON         NOT AVBL
WRIGHT-PAT AFB CLOUDY    47  44  90 SE7       30.19F
DAYTON GENERAL CLOUDY    46  43  89 S6        30.19S
WILMINGTON     CLOUDY    45  42  89 SE7       30.20F
$$

OHZ036-037-039>041-045>050-054>059-063>069-073>076-082>088-280000-
  CENTRAL AND SOUTHEAST OHIO

CITY           SKY/WX    TMP DP  RH WIND       PRES   REMARKS
COLUMBUS       CLOUDY    46  41  82 SE8       30.23S
OSU AIRPORT    CLOUDY    44  41  89 SE6       30.22S
BOLTON FIELD   CLOUDY    43  43 100 S6        30.23S
RICKENBACK AFB NOT AVBL
NEWARK         CLOUDY    44  40  85 S7        30.24R
MARION         CLOUDY    44  38  79 SE7       30.23S
LANCASTER      CLOUDY    46  42  86 SE6       30.25R
ZANESVILLE     CLOUDY    43  41  93 S6        30.26R
NEW PHILLY     CLOUDY    42  37  82 SE5       30.27R
$$




USA.gov is the U.S. government's official web portal to all federal, state and local government web resources and services.